Regional Weather Roundup
Issued by NWS

Home | Current Version | Previous Version | Text Only | Print | Product List | Glossary On
Versions: 1 2 3 4 5 6 7 8 9 10 11 12 13 14 15 16 17 18 19 20 21 22 23 24 25 26 27 28 29 30 31 32 33 34 35 36 37 38 39 40 41 42 43 44 45 46 47 48 49 50
000
ASCA44 KEWX 300020
RWRMX

LATIN AMERICA AND CARIBBEAN REGIONAL WEATHER ROUNDUP
NATIONAL WEATHER SERVICE AUSTIN/SAN ANTONIO TX
700 PM CDT WED JUL 29 2015

NOTE: "FAIR" INDICATED FEW OR NO CLOUDS BELOW 12,000 FEET WITH NO
SIGNIFICANT WEATHER AND/OR OBSTRUCTIONS TO VISIBILITY.

BAJA CALIFORNIA

CITY           SKY/WX    TMP DP  RH WIND       PRES   REMARKS
LORETO         SUNNY     95  77  55 SE6       29.80F HX 109
LA PAZ         MOSUNNY   93  70  46 N13       29.84S HX  99
MEXICALI       PTSUNNY  100  64  30 SE10      29.82F HX 103
S.J. DEL CABO  MOSUNNY   91  66  43 SE9       29.84F HX  94
TIJUANA        MOSUNNY   75  61  60 W13       29.96S

NORTHWESTERN MEXICO

CITY           SKY/WX    TMP DP  RH WIND       PRES   REMARKS
CULIACAN       PTSUNNY   97  79  56 SW14      29.83S HX 115
DURANGO        CLOUDY    75  54  46 S10       30.25R
GUAYMAS        MOSUNNY   91  79  66 S14       29.78F HX 107
HERMOSILLO     CLOUDY    91  75  59 S12       29.89S HX 102
CD. JUAREZ     CLOUDY    91  61  35 SE14      30.03R HX  91
LOS MOCHIS     MOSUNNY   91  72  52 W13       29.84S HX  98
OBREGON        MOSUNNY   97  64  34 SW13      29.80F HX  99

NORTHEASTERN MEXICO

CITY           SKY/WX    TMP DP  RH WIND       PRES   REMARKS
CHIHUAHUA      PTSUNNY   91  54  27 CALM      30.08F
MATAMOROS      MOSUNNY   91  77  62 SE12      29.99S HX 105
MONCLOVA       MOSUNNY  100  63  28 NE9       29.90S HX 102
MONTERREY      MOSUNNY   97  50  20 E14       29.91F HX  94
NUEVO LAREDO   SUNNY    104  63  25 SE16      29.90S HX 106
PIEDRAS NEGRAS SUNNY    104  66  29 SE12      29.91F HX 109
REYNOSA        MOSUNNY   91  61  35 E16       29.95S HX  91
SALTILLO       MOSUNNY   82  63  51 N17       30.16F
TORREON        PTSUNNY   97  54  23 NE7       30.01F HX  94
CD. VICTORIA   SUNNY     97  57  26 S17       29.93S HX  95

WESTERN MEXICO

CITY           SKY/WX    TMP DP  RH WIND       PRES   REMARKS
AGUASCALIENTES PTSUNNY   82  43  24 E9        30.22F
COLIMA         PTSUNNY   86  75  70 CALM      29.92R HX  95
DEL BAJIO      PTSUNNY   82  54  36 SW5       30.24S
GUADALAJARA    PTSUNNY   82  55  39 SE5       30.13F
MANZANILLO     MOSUNNY   88  79  74 W23       29.73S HX 102
MAZATLAN       MOSUNNY   88  75  66 SW16      29.80F HX  97
P. VALLARTA    PTSUNNY   88  79  74 SW12      29.81S HX 102
URUAPAN        PTSUNNY   70  66  88 CALM      30.14
ZACATECAS      PTSUNNY   75  45  33 E8        30.28S

CENTRAL MEXICO

CITY           SKY/WX    TMP DP  RH WIND       PRES   REMARKS
CUERNAVACA     MOSUNNY   88  52  29 CALM      30.04S
MEXICO CITY    MOSUNNY   79  39  24 N14       30.27R
MORELIA        PTSUNNY   75  59  57 CALM      30.19S
POZA RICA      CLOUDY    86  75  70 E12       29.98R HX  95
PUEBLA         MOSUNNY   75  45  33 S9        30.29S
QUERETARO      PTSUNNY   79  50  36 E15       30.27R
S. LUIS POTOSI SUNNY     79  43  27 E17       30.24S
TAMPICO        MOSUNNY   86  73  66 E14       29.96S HX  93
TOLUCA         PTSUNNY   72  43  35 N7        30.37S

SOUTHERN MEXICO

CITY           SKY/WX    TMP DP  RH WIND       PRES   REMARKS
ACAPULCO       PTSUNNY   88  81  79 W15       29.78S HX 105
B. DE HUATULCO CLOUDY    88  77  70 CALM      29.90R HX 100
OAXACA         PTSUNNY   81  46  30 E15       30.17R
P. ESCONDIDO   MOSUNNY   88  73  62 S9        29.93S HX  96
VERACRUZ       MOSUNNY   86  77  74 E6        29.94S HX  97
ZIHUATANEJO    PTSUNNY   90  79  70 SW7       29.80S HX 105

YUCATAN PENINSULA

CITY           SKY/WX    TMP DP  RH WIND       PRES   REMARKS
CAMPECHE       LGT RAIN  86  77  74 N12G23    29.91R HX  97
CANCUN         PTCLDY    86  77  74 NE8       30.01R HX  97
CHETUMAL       PTCLDY    88  77  70 E6        29.96S HX 100
CD. DEL CARMEN MOCLDY    86  79  79 N14       29.90S HX  99
COZUMEL        PTCLDY    82  77  83 NE7       30.01R HX  91
MERIDA         PTCLDY    90  70  51 N12       29.97R HX  95
MINATITLAN     PTSUNNY   84  68  58 N12       29.89R
TAPACHULA      PTCLDY    88  79  74 W12       29.87R HX 102
TUX. GUTIERREZ PTCLDY    86  68  54 NW15      29.90R
VILLAHERMOSA   CLEAR     91  70  49 NE8       29.90R HX  97

CENTRAL AMERICA

CITY           SKY/WX    TMP DP  RH WIND       PRES   REMARKS
BELIZE CITY    PTCLDY    86  77  74 NE12      29.95R HX  97
MANAGUA        PTCLDY    84  75  74 E9        29.80R HX  92

CARIBBEAN

CITY           SKY/WX    TMP DP  RH WIND       PRES   REMARKS
ARUBA          PTCLDY    82  77  83 E18       29.89R HX  91
CURACAO        PTCLDY    82  73  74 E13       29.92
KINGSTON       PTCLDY    88  73  62 SE23      29.94R HX  96
NASSAU         CLOUDY    88  81  79 S5        30.01S HX 105
SAN JUAN       PTCLDY    82  77  83 E14G21    30.02R HX  91
SANTO DOMINGO  PTCLDY    86  73  66 SE6       29.97R HX  93
ST. CROIX      CLEAR     81  72  74 E10       30.01R
ST. KITTS      PTCLDY    82  73  74 NE14      30.00S
ST. MAARTEN    PTCLDY    82  72  69 E9        30.03R
ST. THOMAS     CLEAR     82  73  74 E13       30.01R

$$




USA.gov is the U.S. government's official web portal to all federal, state and local government web resources and services.